Year,Month,Day,Hour,Minute,Value (Times are PST for windspeed in km/hr)
2006,12,13,00,00,26.70
2006,12,13,00,01,10.90
2006,12,13,00,02,11.80
2006,12,13,00,03,17.50
2006,12,13,00,04,14.60
2006,12,13,00,05,18.90
2006,12,13,00,06,14.60
2006,12,13,00,07,24.10
2006,12,13,00,08,17.80
2006,12,13,00,09,16.20
2006,12,13,00,10,10.70
2006,12,13,00,11,19.90
2006,12,13,00,12,25.60
2006,12,13,00,13,20.00
2006,12,13,00,14,21.00
2006,12,13,00,15,18.70
2006,12,13,00,16,24.60
2006,12,13,00,17,20.20
2006,12,13,00,18,20.00
2006,12,13,00,19,17.40
2006,12,13,00,20,18.60
2006,12,13,00,21,10.70
2006,12,13,00,22,10.50
2006,12,13,00,23,17.30
2006,12,13,00,24,28.40
2006,12,13,00,25,20.60
2006,12,13,00,26,18.40
2006,12,13,00,27,17.60
2006,12,13,00,28,15.70
2006,12,13,00,29,10.20
2006,12,13,00,30,15.50
2006,12,13,00,31,16.00
2006,12,13,00,32,21.20
2006,12,13,00,33,22.30
2006,12,13,00,34,16.00
2006,12,13,00,35,8.40
2006,12,13,00,36,20.10
2006,12,13,00,37,16.80
2006,12,13,00,38,23.70
2006,12,13,00,39,19.00
2006,12,13,00,40,18.80
2006,12,13,00,41,13.90
2006,12,13,00,42,21.30
2006,12,13,00,43,14.80
2006,12,13,00,44,16.40
2006,12,13,00,45,20.10
2006,12,13,00,46,11.70
2006,12,13,00,47,14.20
2006,12,13,00,48,16.40
2006,12,13,00,49,10.90
2006,12,13,00,50,13.60
2006,12,13,00,51,5.70
2006,12,13,00,52,3.20
2006,12,13,00,53,3.20
2006,12,13,00,54,3.20
2006,12,13,00,55,5.60
2006,12,13,00,56,9.00
2006,12,13,00,57,16.20
2006,12,13,00,58,13.80
2006,12,13,00,59,15.50
2006,12,13,01,00,13.20
2006,12,13,01,01,10.70
2006,12,13,01,02,15.60
2006,12,13,01,03,6.00
2006,12,13,01,04,9.20
2006,12,13,01,05,7.30
2006,12,13,01,06,6.40
2006,12,13,01,07,14.00
2006,12,13,01,08,13.10
2006,12,13,01,09,12.20
2006,12,13,01,10,11.30
2006,12,13,01,11,11.00
2006,12,13,01,12,14.90
2006,12,13,01,13,16.20
2006,12,13,01,14,12.90
2006,12,13,01,15,14.00
2006,12,13,01,16,14.30
2006,12,13,01,17,13.20
2006,12,13,01,18,14.40
2006,12,13,01,19,9.40
2006,12,13,01,20,10.80
2006,12,13,01,21,10.20
2006,12,13,01,22,8.90
2006,12,13,01,23,18.50
2006,12,13,01,24,14.50
2006,12,13,01,25,15.60
2006,12,13,01,26,12.20
2006,12,13,01,27,16.40
2006,12,13,01,28,22.50
2006,12,13,01,29,32.20
2006,12,13,01,30,32.20
2006,12,13,01,31,20.60
2006,12,13,01,32,11.50
2006,12,13,01,33,20.40
2006,12,13,01,34,15.40
2006,12,13,01,35,19.20
2006,12,13,01,36,16.20
2006,12,13,01,37,17.40
2006,12,13,01,38,15.30
2006,12,13,01,39,20.20
2006,12,13,01,40,20.50
2006,12,13,01,41,22.40
2006,12,13,01,42,15.00
2006,12,13,01,43,14.30
2006,12,13,01,44,19.00
2006,12,13,01,45,15.00
2006,12,13,01,46,8.50
2006,12,13,01,47,14.30
2006,12,13,01,48,13.90
2006,12,13,01,49,15.40
2006,12,13,01,50,17.80
2006,12,13,01,51,17.70
2006,12,13,01,52,16.80
2006,12,13,01,53,18.50
2006,12,13,01,54,18.00
2006,12,13,01,55,11.60
2006,12,13,01,56,11.30
2006,12,13,01,57,11.30
2006,12,13,01,58,15.20
2006,12,13,01,59,16.70
2006,12,13,02,00,12.70
2006,12,13,02,01,16.40
2006,12,13,02,02,21.10
2006,12,13,02,03,20.90
2006,12,13,02,04,15.60
2006,12,13,02,05,16.10
2006,12,13,02,06,14.10
2006,12,13,02,07,11.80
2006,12,13,02,08,12.70
2006,12,13,02,09,11.30
2006,12,13,02,10,13.00
2006,12,13,02,11,10.60
2006,12,13,02,12,14.40
2006,12,13,02,13,8.50
2006,12,13,02,14,10.60
2006,12,13,02,15,6.90
2006,12,13,02,16,6.00
2006,12,13,02,17,8.30
2006,12,13,02,18,11.30
2006,12,13,02,19,11.80
2006,12,13,02,20,10.30
2006,12,13,02,21,10.40
2006,12,13,02,22,10.90
2006,12,13,02,23,9.10
2006,12,13,02,24,7.60
2006,12,13,02,25,7.50
2006,12,13,02,26,9.90
2006,12,13,02,27,9.00
2006,12,13,02,28,9.00
2006,12,13,02,29,4.40
2006,12,13,02,30,7.80
2006,12,13,02,31,5.70
2006,12,13,02,32,6.70
2006,12,13,02,33,8.80
2006,12,13,02,34,12.00
2006,12,13,02,35,17.50
2006,12,13,02,36,11.90
2006,12,13,02,37,7.60
2006,12,13,02,38,14.40
2006,12,13,02,39,16.90
2006,12,13,02,40,16.60
2006,12,13,02,41,17.90
2006,12,13,02,42,14.10
2006,12,13,02,43,13.70
2006,12,13,02,44,12.30
2006,12,13,02,45,15.70
2006,12,13,02,46,15.20
2006,12,13,02,47,15.90
2006,12,13,02,48,16.10
2006,12,13,02,49,16.10
2006,12,13,02,50,16.10
2006,12,13,02,51,13.60
2006,12,13,02,52,12.50
2006,12,13,02,53,15.00
2006,12,13,02,54,14.90
2006,12,13,02,55,9.60
2006,12,13,02,56,4.80
2006,12,13,02,57,17.70
2006,12,13,02,58,17.10
2006,12,13,02,59,11.20
2006,12,13,03,00,13.60
2006,12,13,03,01,15.30
2006,12,13,03,02,13.90
2006,12,13,03,03,12.00
2006,12,13,03,04,14.00
2006,12,13,03,05,8.30
2006,12,13,03,06,14.10
2006,12,13,03,07,15.90
2006,12,13,03,08,14.60
2006,12,13,03,09,14.70
2006,12,13,03,10,17.20
2006,12,13,03,11,12.10
2006,12,13,03,12,13.90
2006,12,13,03,13,13.90
2006,12,13,03,14,13.50
2006,12,13,03,15,14.20
2006,12,13,03,16,16.10
2006,12,13,03,17,16.10
2006,12,13,03,18,31.30
2006,12,13,03,19,29.00
2006,12,13,03,20,20.90
2006,12,13,03,21,16.20
2006,12,13,03,22,22.50
2006,12,13,03,23,23.10
2006,12,13,03,24,23.90
2006,12,13,03,25,26.50
2006,12,13,03,26,27.00
2006,12,13,03,27,26.30
2006,12,13,03,28,24.90
2006,12,13,03,29,24.70
2006,12,13,03,30,23.90
2006,12,13,03,31,27.60
2006,12,13,03,32,29.60
2006,12,13,03,33,24.30
2006,12,13,03,34,22.00
2006,12,13,03,35,21.20
2006,12,13,03,36,20.90
2006,12,13,03,37,34.30
2006,12,13,03,38,26.30
2006,12,13,03,39,24.40
2006,12,13,03,40,24.00
2006,12,13,03,41,24.60
2006,12,13,03,42,21.80
2006,12,13,03,43,19.30
2006,12,13,03,44,19.30
2006,12,13,03,45,25.60
2006,12,13,03,46,30.40
2006,12,13,03,47,31.70
2006,12,13,03,48,24.70
2006,12,13,03,49,28.40
2006,12,13,03,50,23.50
2006,12,13,03,51,24.10
2006,12,13,03,52,29.60
2006,12,13,03,53,22.50
2006,12,13,03,54,27.60
2006,12,13,03,55,24.30
2006,12,13,03,56,36.50
2006,12,13,03,57,28.60
2006,12,13,03,58,25.90
2006,12,13,03,59,33.60
2006,12,13,04,00,31.30
2006,12,13,04,01,23.90
2006,12,13,04,02,22.40
2006,12,13,04,03,25.70
2006,12,13,04,04,24.30
2006,12,13,04,05,18.70
2006,12,13,04,06,20.40
2006,12,13,04,07,25.30
2006,12,13,04,08,21.50
2006,12,13,04,09,19.30
2006,12,13,04,10,28.60
2006,12,13,04,11,30.10
2006,12,13,04,12,30.80
2006,12,13,04,13,30.50
2006,12,13,04,14,30.10
2006,12,13,04,15,30.90
2006,12,13,04,16,26.90
2006,12,13,04,17,21.30
2006,12,13,04,18,26.90
2006,12,13,04,19,22.90
2006,12,13,04,20,19.10
2006,12,13,04,21,23.50
2006,12,13,04,22,21.10
2006,12,13,04,23,23.00
2006,12,13,04,24,18.30
2006,12,13,04,25,20.80
2006,12,13,04,26,26.90
2006,12,13,04,27,20.30
2006,12,13,04,28,47.80
2006,12,13,04,29,46.00
2006,12,13,04,30,27.40
2006,12,13,04,31,28.50
2006,12,13,04,32,33.00
2006,12,13,04,33,27.80
2006,12,13,04,34,25.90
2006,12,13,04,35,33.00
2006,12,13,04,36,33.30
2006,12,13,04,37,28.80
2006,12,13,04,38,26.90
2006,12,13,04,39,31.20
2006,12,13,04,40,37.60
2006,12,13,04,41,40.10
2006,12,13,04,42,39.30
2006,12,13,04,43,35.50
2006,12,13,04,44,53.90
2006,12,13,04,45,53.70
2006,12,13,04,46,54.20
2006,12,13,04,47,51.10
2006,12,13,04,48,40.90
2006,12,13,04,49,44.40
2006,12,13,04,50,42.50
2006,12,13,04,51,35.20
2006,12,13,04,52,36.00
2006,12,13,04,53,40.30
2006,12,13,04,54,34.20
2006,12,13,04,55,23.50
2006,12,13,04,56,36.00
2006,12,13,04,57,30.20
2006,12,13,04,58,34.50
2006,12,13,04,59,35.50
2006,12,13,05,00,27.00
2006,12,13,05,01,23.80
2006,12,13,05,02,28.40
2006,12,13,05,03,21.20
2006,12,13,05,04,21.30
2006,12,13,05,05,23.70
2006,12,13,05,06,25.40
2006,12,13,05,07,24.20
2006,12,13,05,08,28.60
2006,12,13,05,09,21.50
2006,12,13,05,10,24.70
2006,12,13,05,11,17.10
2006,12,13,05,12,20.60
2006,12,13,05,13,16.30
2006,12,13,05,14,21.60
2006,12,13,05,15,23.30
2006,12,13,05,16,22.40
2006,12,13,05,17,23.90
2006,12,13,05,18,18.60
2006,12,13,05,19,17.70
2006,12,13,05,20,17.70
2006,12,13,05,21,17.70
2006,12,13,05,22,17.60
2006,12,13,05,23,16.40
2006,12,13,05,24,13.10
2006,12,13,05,25,11.30
2006,12,13,05,26,15.50
2006,12,13,05,27,11.20
2006,12,13,05,28,11.10
2006,12,13,05,29,13.60
2006,12,13,05,30,9.30
2006,12,13,05,31,12.50
2006,12,13,05,32,17.80
2006,12,13,05,33,14.90
2006,12,13,05,34,18.70
2006,12,13,05,35,18.50
2006,12,13,05,36,15.10
2006,12,13,05,37,18.00
2006,12,13,05,38,17.80
2006,12,13,05,39,21.10
2006,12,13,05,40,19.00
2006,12,13,05,41,24.10
2006,12,13,05,42,22.80
2006,12,13,05,43,14.60
2006,12,13,05,44,24.70
2006,12,13,05,45,23.40
2006,12,13,05,46,25.50
2006,12,13,05,47,21.70
2006,12,13,05,48,21.80
2006,12,13,05,49,26.20
2006,12,13,05,50,23.00
2006,12,13,05,51,24.50
2006,12,13,05,52,22.40
2006,12,13,05,53,26.70
2006,12,13,05,54,23.20
2006,12,13,05,55,34.70
2006,12,13,05,56,29.50
2006,12,13,05,57,24.00
2006,12,13,05,58,23.90
2006,12,13,05,59,23.30
2006,12,13,06,00,27.90
2006,12,13,06,01,23.20
2006,12,13,06,02,20.90
2006,12,13,06,03,19.40
2006,12,13,06,04,17.60
2006,12,13,06,05,14.60
2006,12,13,06,06,20.20
2006,12,13,06,07,19.30
2006,12,13,06,08,20.90
2006,12,13,06,09,20.20
2006,12,13,06,10,23.20
2006,12,13,06,11,23.00
2006,12,13,06,12,23.50
2006,12,13,06,13,24.50
2006,12,13,06,14,19.90
2006,12,13,06,15,33.40
2006,12,13,06,16,18.10
2006,12,13,06,17,23.50
2006,12,13,06,18,26.40
2006,12,13,06,19,27.40
2006,12,13,06,20,27.30
2006,12,13,06,21,33.10
2006,12,13,06,22,32.60
2006,12,13,06,23,19.90
2006,12,13,06,24,26.50
2006,12,13,06,25,31.90
2006,12,13,06,26,20.70
2006,12,13,06,27,17.40
2006,12,13,06,28,24.90
2006,12,13,06,29,18.40
2006,12,13,06,30,27.10
2006,12,13,06,31,24.00
2006,12,13,06,32,28.10
2006,12,13,06,33,29.60
2006,12,13,06,34,29.20
2006,12,13,06,35,26.70
2006,12,13,06,36,19.70
2006,12,13,06,37,26.80
2006,12,13,06,38,23.20
2006,12,13,06,39,37.40
2006,12,13,06,40,28.70
2006,12,13,06,41,47.50
2006,12,13,06,42,34.10
2006,12,13,06,43,36.20
2006,12,13,06,44,41.80
2006,12,13,06,45,37.30
2006,12,13,06,46,40.40
2006,12,13,06,47,40.90
2006,12,13,06,48,44.10
2006,12,13,06,49,38.60
2006,12,13,06,50,42.60
2006,12,13,06,51,38.00
2006,12,13,06,52,47.70
2006,12,13,06,53,37.90
2006,12,13,06,54,46.90
2006,12,13,06,55,49.90
2006,12,13,06,56,49.90
2006,12,13,06,57,46.30
2006,12,13,06,58,29.40
2006,12,13,06,59,36.40
2006,12,13,07,00,33.00
2006,12,13,07,01,33.30
2006,12,13,07,02,35.80
2006,12,13,07,03,40.60
2006,12,13,07,04,36.10
2006,12,13,07,05,36.00
2006,12,13,07,06,34.00
2006,12,13,07,07,37.70
2006,12,13,07,08,31.90
2006,12,13,07,09,32.30
2006,12,13,07,10,30.60
2006,12,13,07,11,38.30
2006,12,13,07,12,34.70
2006,12,13,07,13,27.00
2006,12,13,07,14,31.40
2006,12,13,07,15,34.70
2006,12,13,07,16,31.70
2006,12,13,07,17,34.00
2006,12,13,07,18,32.90
2006,12,13,07,19,40.50
2006,12,13,07,20,34.20
2006,12,13,07,21,36.30
2006,12,13,07,22,35.80
2006,12,13,07,23,35.50
2006,12,13,07,24,45.30
2006,12,13,07,25,41.70
2006,12,13,07,26,25.30
2006,12,13,07,27,36.10
2006,12,13,07,28,51.40
2006,12,13,07,29,46.80
2006,12,13,07,30,42.50
2006,12,13,07,31,39.00
2006,12,13,07,32,35.50
2006,12,13,07,33,39.20
2006,12,13,07,34,40.00
2006,12,13,07,35,31.90
2006,12,13,07,36,26.20
2006,12,13,07,37,25.90
2006,12,13,07,38,26.30
2006,12,13,07,39,28.90
2006,12,13,07,40,35.50
2006,12,13,07,41,34.70
2006,12,13,07,42,38.70
2006,12,13,07,43,38.40
2006,12,13,07,44,28.70
2006,12,13,07,45,32.30
2006,12,13,07,46,43.70
2006,12,13,07,47,38.00
2006,12,13,07,48,41.70
2006,12,13,07,49,30.50
2006,12,13,07,50,40.70
2006,12,13,07,51,36.90
2006,12,13,07,52,37.40
2006,12,13,07,53,52.20
2006,12,13,07,54,39.80
2006,12,13,07,55,36.40
2006,12,13,07,56,32.10
2006,12,13,07,57,45.40
2006,12,13,07,58,42.30
2006,12,13,07,59,35.50
2006,12,13,08,00,36.50
2006,12,13,08,01,41.40
2006,12,13,08,02,34.70
2006,12,13,08,03,36.50
2006,12,13,08,04,35.50
2006,12,13,08,05,41.50
2006,12,13,08,06,29.10
2006,12,13,08,07,27.40
2006,12,13,08,08,29.90
2006,12,13,08,09,37.90
2006,12,13,08,10,44.20
2006,12,13,08,11,39.40
2006,12,13,08,12,37.40
2006,12,13,08,13,44.80
2006,12,13,08,14,46.50
2006,12,13,08,15,60.10
2006,12,13,08,16,53.90
2006,12,13,08,17,50.10
2006,12,13,08,18,44.70
2006,12,13,08,19,47.70
2006,12,13,08,20,49.20
2006,12,13,08,21,45.30
2006,12,13,08,22,35.30
2006,12,13,08,23,46.70
2006,12,13,08,24,48.90
2006,12,13,08,25,32.00
2006,12,13,08,26,31.70
2006,12,13,08,27,42.80
2006,12,13,08,28,41.80
2006,12,13,08,29,44.60
2006,12,13,08,30,35.70
2006,12,13,08,31,37.20
2006,12,13,08,32,33.50
2006,12,13,08,33,31.90
2006,12,13,08,34,40.40
2006,12,13,08,35,38.10
2006,12,13,08,36,39.30
2006,12,13,08,37,37.20
2006,12,13,08,38,44.90
2006,12,13,08,39,35.50
2006,12,13,08,40,37.20
2006,12,13,08,41,41.00
2006,12,13,08,42,25.60
2006,12,13,08,43,33.40
2006,12,13,08,44,33.90
2006,12,13,08,45,47.40
2006,12,13,08,46,48.80
2006,12,13,08,47,39.20
2006,12,13,08,48,46.10
2006,12,13,08,49,46.30
2006,12,13,08,50,43.20
2006,12,13,08,51,36.50
2006,12,13,08,52,31.90
2006,12,13,08,53,38.80
2006,12,13,08,54,37.20
2006,12,13,08,55,32.00
2006,12,13,08,56,35.70
2006,12,13,08,57,47.90
2006,12,13,08,58,42.20
2006,12,13,08,59,35.20
2006,12,13,09,00,33.80
2006,12,13,09,01,31.00
2006,12,13,09,02,36.00
2006,12,13,09,03,48.00
2006,12,13,09,04,33.60
2006,12,13,09,05,39.20
2006,12,13,09,06,35.70
2006,12,13,09,07,37.10
2006,12,13,09,08,31.10
2006,12,13,09,09,38.00
2006,12,13,09,10,44.30
2006,12,13,09,11,35.90
2006,12,13,09,12,29.70
2006,12,13,09,13,30.90
2006,12,13,09,14,28.80
2006,12,13,09,15,35.80
2006,12,13,09,16,37.80
2006,12,13,09,17,32.10
2006,12,13,09,18,37.40
2006,12,13,09,19,40.20
2006,12,13,09,20,45.10
2006,12,13,09,21,47.00
2006,12,13,09,22,33.50
2006,12,13,09,23,29.70
2006,12,13,09,24,33.40
2006,12,13,09,25,29.90
2006,12,13,09,26,30.00
2006,12,13,09,27,25.70
2006,12,13,09,28,27.50
2006,12,13,09,29,29.20
2006,12,13,09,30,26.80
2006,12,13,09,31,20.50
2006,12,13,09,32,23.60
2006,12,13,09,33,34.80
2006,12,13,09,34,31.80
2006,12,13,09,35,30.50
2006,12,13,09,36,35.90
2006,12,13,09,37,35.90
2006,12,13,09,38,34.10
2006,12,13,09,39,31.90
2006,12,13,09,40,34.80
2006,12,13,09,41,42.00
2006,12,13,09,42,41.20
2006,12,13,09,43,39.00
2006,12,13,09,44,34.00
2006,12,13,09,45,42.50
2006,12,13,09,46,36.60
2006,12,13,09,47,34.10
2006,12,13,09,48,29.70
2006,12,13,09,49,35.60
2006,12,13,09,50,33.80
2006,12,13,09,51,42.40
2006,12,13,09,52,41.60
2006,12,13,09,53,48.40
2006,12,13,09,54,41.20
2006,12,13,09,55,41.40
2006,12,13,09,56,34.60
2006,12,13,09,57,44.00
2006,12,13,09,58,45.90
2006,12,13,09,59,49.20
2006,12,13,10,00,40.90
2006,12,13,10,01,32.80
2006,12,13,10,02,43.60
2006,12,13,10,03,38.90
2006,12,13,10,04,47.40
2006,12,13,10,05,37.00
2006,12,13,10,06,43.90
2006,12,13,10,07,51.60
2006,12,13,10,08,41.00
2006,12,13,10,09,40.40
2006,12,13,10,10,39.60
2006,12,13,10,11,44.00
2006,12,13,10,12,42.10
2006,12,13,10,13,49.60
2006,12,13,10,14,41.40
2006,12,13,10,15,43.60
2006,12,13,10,16,34.30
2006,12,13,10,17,33.40
2006,12,13,10,18,33.50
2006,12,13,10,19,37.10
2006,12,13,10,20,34.30
2006,12,13,10,21,37.20
2006,12,13,10,22,36.20
2006,12,13,10,23,36.30
2006,12,13,10,24,42.30
2006,12,13,10,25,34.90
2006,12,13,10,26,29.70
2006,12,13,10,27,39.50
2006,12,13,10,28,43.00
2006,12,13,10,29,33.00
2006,12,13,10,30,32.50
2006,12,13,10,31,36.00
2006,12,13,10,32,36.60
2006,12,13,10,33,41.20
2006,12,13,10,34,37.60
2006,12,13,10,35,39.00
2006,12,13,10,36,53.10
2006,12,13,10,37,53.10
2006,12,13,10,38,45.10
2006,12,13,10,39,39.10
2006,12,13,10,40,36.70
2006,12,13,10,41,44.20
2006,12,13,10,42,39.80
2006,12,13,10,43,43.20
2006,12,13,10,44,41.80
2006,12,13,10,45,37.00
2006,12,13,10,46,40.20
2006,12,13,10,47,39.00
2006,12,13,10,48,37.70
2006,12,13,10,49,33.50
2006,12,13,10,50,39.30
2006,12,13,10,51,37.10
2006,12,13,10,52,48.30
2006,12,13,10,53,46.60
2006,12,13,10,54,32.20
2006,12,13,10,55,37.50
2006,12,13,10,56,41.70
2006,12,13,10,57,42.90
2006,12,13,10,58,41.60
2006,12,13,10,59,34.10
2006,12,13,11,00,34.80
2006,12,13,11,01,31.30
2006,12,13,11,02,47.80
2006,12,13,11,03,41.40
2006,12,13,11,04,47.60
2006,12,13,11,05,42.00
2006,12,13,11,06,41.10
2006,12,13,11,07,46.00
2006,12,13,11,08,35.20
2006,12,13,11,09,30.90
2006,12,13,11,10,30.60
2006,12,13,11,11,36.20
2006,12,13,11,12,37.10
2006,12,13,11,13,41.80
2006,12,13,11,14,42.40
2006,12,13,11,15,33.90
2006,12,13,11,16,41.00
2006,12,13,11,17,39.50
2006,12,13,11,18,41.80
2006,12,13,11,19,37.60
2006,12,13,11,20,40.90
2006,12,13,11,21,33.00
2006,12,13,11,22,36.10
2006,12,13,11,23,43.50
2006,12,13,11,24,36.80
2006,12,13,11,25,32.70
2006,12,13,11,26,37.60
2006,12,13,11,27,31.40
2006,12,13,11,28,48.70
2006,12,13,11,29,27.50
2006,12,13,11,30,27.50
2006,12,13,11,31,43.30
2006,12,13,11,32,49.50
2006,12,13,11,33,49.10
2006,12,13,11,34,46.90
2006,12,13,11,35,50.10
2006,12,13,11,36,51.60
2006,12,13,11,37,35.10
2006,12,13,11,38,36.40
2006,12,13,11,39,35.50
2006,12,13,11,40,58.10
2006,12,13,11,41,38.80
2006,12,13,11,42,40.90
2006,12,13,11,43,33.00
2006,12,13,11,44,27.70
2006,12,13,11,45,26.20
2006,12,13,11,46,20.30
2006,12,13,11,47,24.10
2006,12,13,11,48,31.10
2006,12,13,11,49,26.40
2006,12,13,11,50,29.10
2006,12,13,11,51,29.00
2006,12,13,11,52,42.80
2006,12,13,11,53,35.40
2006,12,13,11,54,35.40
2006,12,13,11,55,35.40
2006,12,13,11,56,35.40
2006,12,13,11,57,35.40
2006,12,13,11,58,36.10
2006,12,13,11,59,37.50
2006,12,13,12,00,37.40
2006,12,13,12,01,37.90
2006,12,13,12,02,36.50
2006,12,13,12,03,43.30
2006,12,13,12,04,34.30
2006,12,13,12,05,37.40
2006,12,13,12,06,39.90
2006,12,13,12,07,39.00
2006,12,13,12,08,50.90
2006,12,13,12,09,38.10
2006,12,13,12,10,36.50
2006,12,13,12,11,29.60
2006,12,13,12,12,30.00
2006,12,13,12,13,37.10
2006,12,13,12,14,32.00
2006,12,13,12,15,35.10
2006,12,13,12,16,31.70
2006,12,13,12,17,31.10
2006,12,13,12,18,31.20
2006,12,13,12,19,30.60
2006,12,13,12,20,48.10
2006,12,13,12,21,33.30
2006,12,13,12,22,32.90
2006,12,13,12,23,39.90
2006,12,13,12,24,39.00
2006,12,13,12,25,42.10
2006,12,13,12,26,36.00
2006,12,13,12,27,30.10
2006,12,13,12,28,34.20
2006,12,13,12,29,37.90
2006,12,13,12,30,25.70
2006,12,13,12,31,36.40
2006,12,13,12,32,34.30
2006,12,13,12,33,35.20
2006,12,13,12,34,36.60
2006,12,13,12,35,45.10
2006,12,13,12,36,31.00
2006,12,13,12,37,39.60
2006,12,13,12,38,45.70
2006,12,13,12,39,28.10
2006,12,13,12,40,33.30
2006,12,13,12,41,32.10
2006,12,13,12,42,40.90
2006,12,13,12,43,42.80
2006,12,13,12,44,38.60
2006,12,13,12,45,35.40
2006,12,13,12,46,40.00
2006,12,13,12,47,52.00
2006,12,13,12,48,57.90
2006,12,13,12,49,57.90
2006,12,13,12,50,46.70
2006,12,13,12,51,38.60
2006,12,13,12,52,43.50
2006,12,13,12,53,36.60
2006,12,13,12,54,29.90
2006,12,13,12,55,35.10
2006,12,13,12,56,34.30
2006,12,13,12,57,33.90
2006,12,13,12,58,39.90
2006,12,13,12,59,28.50
2006,12,13,13,00,40.40
2006,12,13,13,01,38.70
2006,12,13,13,02,38.90
2006,12,13,13,03,30.90
2006,12,13,13,04,32.10
2006,12,13,13,05,34.60
2006,12,13,13,06,36.40
2006,12,13,13,07,44.90
2006,12,13,13,08,50.00
2006,12,13,13,09,24.60
2006,12,13,13,10,43.70
2006,12,13,13,11,31.20
2006,12,13,13,12,36.90
2006,12,13,13,13,31.30
2006,12,13,13,14,32.30
2006,12,13,13,15,35.80
2006,12,13,13,16,31.50
2006,12,13,13,17,33.50
2006,12,13,13,18,25.10
2006,12,13,13,19,33.30
2006,12,13,13,20,37.00
2006,12,13,13,21,34.20
2006,12,13,13,22,29.90
2006,12,13,13,23,32.30
2006,12,13,13,24,43.40
2006,12,13,13,25,34.90
2006,12,13,13,26,33.30
2006,12,13,13,27,35.50
2006,12,13,13,28,38.10
2006,12,13,13,29,37.30
2006,12,13,13,30,34.10
2006,12,13,13,31,34.30
2006,12,13,13,32,35.10
2006,12,13,13,33,34.10
2006,12,13,13,34,36.30
2006,12,13,13,35,30.00
2006,12,13,13,36,28.20
2006,12,13,13,37,28.80
2006,12,13,13,38,28.10
2006,12,13,13,39,28.40
2006,12,13,13,40,30.50
2006,12,13,13,41,36.60
2006,12,13,13,42,42.80
2006,12,13,13,43,30.80
2006,12,13,13,44,28.30
2006,12,13,13,45,28.60
2006,12,13,13,46,28.50
2006,12,13,13,47,32.10
2006,12,13,13,48,32.20
2006,12,13,13,49,32.20
2006,12,13,13,50,30.60
2006,12,13,13,51,36.00
2006,12,13,13,52,32.50
2006,12,13,13,53,27.40
2006,12,13,13,54,17.20
2006,12,13,13,55,38.80
2006,12,13,13,56,34.30
2006,12,13,13,57,37.00
2006,12,13,13,58,28.30
2006,12,13,13,59,31.80
2006,12,13,14,00,42.60
2006,12,13,14,01,32.50
2006,12,13,14,02,27.60
2006,12,13,14,03,47.50
2006,12,13,14,04,48.30
2006,12,13,14,05,48.30
2006,12,13,14,06,37.80
2006,12,13,14,07,26.70
2006,12,13,14,08,33.30
2006,12,13,14,09,35.70
2006,12,13,14,10,37.20
2006,12,13,14,11,30.40
2006,12,13,14,12,38.20
2006,12,13,14,13,31.30
2006,12,13,14,14,19.70
2006,12,13,14,15,24.50
2006,12,13,14,16,22.30
2006,12,13,14,17,30.80
2006,12,13,14,18,33.70
2006,12,13,14,19,30.30
2006,12,13,14,20,25.80
2006,12,13,14,21,31.90
2006,12,13,14,22,26.10
2006,12,13,14,23,30.40
2006,12,13,14,24,27.50
2006,12,13,14,25,24.80
2006,12,13,14,26,24.40
2006,12,13,14,27,17.10
2006,12,13,14,28,11.30
2006,12,13,14,29,11.30
2006,12,13,14,30,11.30
2006,12,13,14,31,19.70
2006,12,13,14,32,20.10
2006,12,13,14,33,20.10
2006,12,13,14,34,27.50
2006,12,13,14,35,26.00
2006,12,13,14,36,29.20
2006,12,13,14,37,26.30
2006,12,13,14,38,33.80
2006,12,13,14,39,32.30
2006,12,13,14,40,32.00
2006,12,13,14,41,26.20
2006,12,13,14,42,31.40
2006,12,13,14,43,24.60
2006,12,13,14,44,31.30
2006,12,13,14,45,21.20
2006,12,13,14,46,25.50
2006,12,13,14,47,26.10
2006,12,13,14,48,24.70
2006,12,13,14,49,34.40
2006,12,13,14,50,31.60
2006,12,13,14,51,27.50
2006,12,13,14,52,23.60
2006,12,13,14,53,24.20
2006,12,13,14,54,36.90
2006,12,13,14,55,33.00
2006,12,13,14,56,23.20
2006,12,13,14,57,21.40
2006,12,13,14,58,20.70
2006,12,13,14,59,20.80
2006,12,13,15,00,16.70
2006,12,13,15,01,23.30
2006,12,13,15,02,22.10
2006,12,13,15,03,15.60
2006,12,13,15,04,19.90
2006,12,13,15,05,15.60
2006,12,13,15,06,27.80
2006,12,13,15,07,33.90
2006,12,13,15,08,30.00
2006,12,13,15,09,31.60
2006,12,13,15,10,35.30
2006,12,13,15,11,41.90
2006,12,13,15,12,42.60
2006,12,13,15,13,41.40
2006,12,13,15,14,36.90
2006,12,13,15,15,35.10
2006,12,13,15,16,34.80
2006,12,13,15,17,31.40
2006,12,13,15,18,36.50
2006,12,13,15,19,31.10
2006,12,13,15,20,27.10
2006,12,13,15,21,25.10
2006,12,13,15,22,25.70
2006,12,13,15,23,26.30
2006,12,13,15,24,27.40
2006,12,13,15,25,26.50
2006,12,13,15,26,15.70
2006,12,13,15,27,16.80
2006,12,13,15,28,22.40
2006,12,13,15,29,25.60
2006,12,13,15,30,24.70
2006,12,13,15,31,33.10
2006,12,13,15,32,32.80
2006,12,13,15,33,26.40
2006,12,13,15,34,24.60
2006,12,13,15,35,26.00
2006,12,13,15,36,32.10
2006,12,13,15,37,25.40
2006,12,13,15,38,21.30
2006,12,13,15,39,21.70
2006,12,13,15,40,24.00
2006,12,13,15,41,19.60
2006,12,13,15,42,18.60
2006,12,13,15,43,18.50
2006,12,13,15,44,22.40
2006,12,13,15,45,18.90
2006,12,13,15,46,16.20
2006,12,13,15,47,18.10
2006,12,13,15,48,19.00
2006,12,13,15,49,17.00
2006,12,13,15,50,12.70
2006,12,13,15,51,17.50
2006,12,13,15,52,15.50
2006,12,13,15,53,12.30
2006,12,13,15,54,17.30
2006,12,13,15,55,14.80
2006,12,13,15,56,16.60
2006,12,13,15,57,11.10
2006,12,13,15,58,17.30
2006,12,13,15,59,13.50
2006,12,13,16,00,9.70
2006,12,13,16,01,16.30
2006,12,13,16,02,10.00
2006,12,13,16,03,9.60
2006,12,13,16,04,8.10
2006,12,13,16,05,8.00
2006,12,13,16,06,9.10
2006,12,13,16,07,8.90
2006,12,13,16,08,7.00
2006,12,13,16,09,8.80
2006,12,13,16,10,9.30
2006,12,13,16,11,8.80
2006,12,13,16,12,8.60
2006,12,13,16,13,5.40
2006,12,13,16,14,8.40
2006,12,13,16,15,6.20
2006,12,13,16,16,7.80
2006,12,13,16,17,15.70
2006,12,13,16,18,18.00
2006,12,13,16,19,15.90
2006,12,13,16,20,18.00
2006,12,13,16,21,14.20
2006,12,13,16,22,18.80
2006,12,13,16,23,18.20
2006,12,13,16,24,24.50
2006,12,13,16,25,20.00
2006,12,13,16,26,18.50
2006,12,13,16,27,22.50
2006,12,13,16,28,22.30
2006,12,13,16,29,21.20
2006,12,13,16,30,17.10
2006,12,13,16,31,17.90
2006,12,13,16,32,17.30
2006,12,13,16,33,16.70
2006,12,13,16,34,21.10
2006,12,13,16,35,20.00
2006,12,13,16,36,22.10
2006,12,13,16,37,17.50
2006,12,13,16,38,16.70
2006,12,13,16,39,13.50
2006,12,13,16,40,10.90
2006,12,13,16,41,15.30
2006,12,13,16,42,13.90
2006,12,13,16,43,14.60
2006,12,13,16,44,14.50
2006,12,13,16,45,9.70
2006,12,13,16,46,13.60
2006,12,13,16,47,11.40
2006,12,13,16,48,14.40
2006,12,13,16,49,13.60
2006,12,13,16,50,13.10
2006,12,13,16,51,14.10
2006,12,13,16,52,20.40
2006,12,13,16,53,19.90
2006,12,13,16,54,19.90
2006,12,13,16,55,33.20
2006,12,13,16,56,22.30
2006,12,13,16,57,18.30
2006,12,13,16,58,17.30
2006,12,13,16,59,22.50
2006,12,13,17,00,25.50
2006,12,13,17,01,29.90
2006,12,13,17,02,25.50
2006,12,13,17,03,21.30
2006,12,13,17,04,22.40
2006,12,13,17,05,26.90
2006,12,13,17,06,23.90
2006,12,13,17,07,27.80
2006,12,13,17,08,29.50
2006,12,13,17,09,21.40
2006,12,13,17,10,26.90
2006,12,13,17,11,26.80
2006,12,13,17,12,21.80
2006,12,13,17,13,18.00
2006,12,13,17,14,22.50
2006,12,13,17,15,23.10
2006,12,13,17,16,26.30
2006,12,13,17,17,26.30
2006,12,13,17,18,23.50
2006,12,13,17,19,26.70
2006,12,13,17,20,27.80
2006,12,13,17,21,16.90